Darlington, SC

10:10 PM EST on February 18, 2018 (GMT -0500)
Darlington County Jetport

Weather History for KUDG - February, 2013

Change the Weather History Date:

Monday, February 18, 2013

  Actual Average (KFLO) Record (KFLO)
Temperature  
Mean Temperature 37 °F -  
Max Temperature 53 °F 55 °F 81 °F (1956)
Min Temperature 21 °F 37 °F 12 °F (1958)
Degree Days  
Heating Degree Days 28    
Moisture  
Dew Point 22 °F    
Average Humidity 58    
Maximum Humidity 93    
Minimum Humidity 28    
Precipitation  
Precipitation 0.00 in - - ()
Sea Level Pressure  
Sea Level Pressure 30.35 in    
Wind  
Wind Speed 2 mph (SSE)    
Max Wind Speed 12 mph    
Max Gust Speed -    
Averages and records for this station are not official NWS values.
T = Trace of Precipitation, MM = Missing Value Source: NWS Daily Summary

Daily Weather History Graph

Daily Weather History Graph

Search for Another Location

Airport or City:

Trip Planner

Search our weather history database for the weather conditions in past years. The results will help you decide how hot, cold, wet, or windy it might be!

Date:

Astronomy

Feb. 18, 2013 Rise Set
Actual Time 7:01 AM EST 6:06 PM EST
Civil Twilight 6:35 AM EST 6:31 PM EST
Nautical Twilight 6:06 AM EST 7:01 PM EST
Astronomical Twilight 5:37 AM EST 7:30 PM EST
Moon 11:57 AM EST (2/18) 1:32 AM EST (2/18)
Length of Visible Light 11h 55m
Length of Day
11h 04m
First Quarter, 58% of the Moon is Illuminated
Feb 18
First Quarter
Feb 25
Full
Mar 4
Last Quarter
Mar 11
New
Mar 19
First Quarter

Hourly Weather History & Observations

Time (EST) Temp. Windchill Dew Point Humidity Pressure Visibility Wind Dir Wind Speed Gust Speed Precip Events Conditions
12:15 AM 28.4 °F - 21.2 °F 74% 30.31 in - Calm Calm - N/A   Clear
12:35 AM 26.6 °F - 21.2 °F 80% 30.31 in - Calm Calm - N/A   Clear
12:55 AM 28.4 °F - 21.2 °F 74% 30.31 in - Calm Calm - N/A   Clear
1:15 AM 26.6 °F - 21.2 °F 80% 30.31 in - Calm Calm - N/A   Clear
1:35 AM 24.8 °F - 21.2 °F 86% 30.32 in - Calm Calm - N/A   Unknown
1:55 AM 24.8 °F - 21.2 °F 86% 30.32 in - Calm Calm - N/A   Unknown
2:15 AM 26.6 °F - 21.2 °F 80% 30.33 in - Calm Calm - N/A   Clear
2:35 AM 26.6 °F - 21.2 °F 80% 30.33 in - Calm Calm - N/A   Clear
2:55 AM 26.6 °F - 21.2 °F 80% 30.34 in - Calm Calm - N/A   Clear
3:15 AM 24.8 °F - 21.2 °F 86% 30.34 in - Calm Calm - N/A   Unknown
3:35 AM 24.8 °F - 21.2 °F 86% 30.34 in - Calm Calm - N/A   Unknown
3:55 AM 24.8 °F - 19.4 °F 80% 30.34 in - Calm Calm - N/A   Clear
4:15 AM 23.0 °F - 19.4 °F 86% 30.34 in - Calm Calm - N/A   Unknown
4:35 AM 24.8 °F - 19.4 °F 80% 30.35 in - Calm Calm - N/A   Clear
4:55 AM 24.8 °F - 19.4 °F 80% 30.35 in - Calm Calm - N/A   Clear
5:15 AM 24.8 °F - 19.4 °F 80% 30.36 in - Calm Calm - N/A   Clear
5:35 AM 24.8 °F - 19.4 °F 80% 30.37 in - Calm Calm - N/A   Clear
5:55 AM 24.8 °F - 19.4 °F 80% 30.37 in - Calm Calm - N/A   Clear
6:15 AM 23.0 °F - 19.4 °F 86% 30.38 in - Calm Calm - N/A   Unknown
6:35 AM 23.0 °F 17.0 °F 17.6 °F 80% 30.38 in - WSW 4.6 mph - N/A   Clear
6:55 AM 21.2 °F 16.4 °F 19.4 °F 93% 30.39 in - WSW 3.5 mph - N/A   Unknown
7:15 AM 21.2 °F - 17.6 °F 86% 30.40 in - Calm Calm - N/A   Unknown
7:35 AM 24.8 °F - 19.4 °F 80% 30.40 in - Calm Calm - N/A   Clear
7:55 AM 26.6 °F - 21.2 °F 80% 30.41 in - Calm Calm - N/A   Clear
8:15 AM 28.4 °F - 24.8 °F 86% 30.42 in - Calm Calm - N/A   Unknown
8:35 AM 30.2 °F - 24.8 °F 80% 30.42 in - Calm Calm - N/A   Clear
8:55 AM 33.8 °F - 26.6 °F 75% 30.42 in - Calm Calm - N/A   Clear
9:15 AM 33.8 °F - 26.6 °F 75% 30.42 in - Calm Calm - N/A   Clear
9:35 AM 37.4 °F - 24.8 °F 60% 30.43 in - Calm Calm - N/A   Clear
9:55 AM 39.2 °F - 24.8 °F 56% 30.43 in - Calm Calm - N/A   Clear
10:15 AM 41.0 °F - 23.0 °F 49% 30.43 in - Calm Calm - N/A   Clear
10:35 AM 44.6 °F 42.2 °F 19.4 °F 37% 30.43 in - East 4.6 mph - N/A   Clear
10:55 AM 44.6 °F 43.1 °F 17.6 °F 34% 30.43 in - East 3.5 mph - N/A   Clear
11:15 AM 46.4 °F 44.3 °F 17.6 °F 32% 30.43 in - SE 4.6 mph - N/A   Clear
11:35 AM 46.4 °F - 17.6 °F 32% 30.43 in - Calm Calm - N/A   Clear
11:55 AM 46.4 °F 44.3 °F 19.4 °F 34% 30.42 in - SSW 4.6 mph - N/A   Clear
12:15 PM 48.2 °F - 19.4 °F 32% 30.41 in - Calm Calm - N/A   Clear
12:35 PM 50.0 °F - 21.2 °F 32% 30.40 in - Calm Calm - N/A   Clear
12:55 PM 50.0 °F - 21.2 °F 32% 30.39 in - ESE 5.8 mph - N/A   Clear
1:15 PM 51.8 °F - 21.2 °F 30% 30.37 in - East 5.8 mph - N/A   Clear
1:35 PM 51.8 °F - 23.0 °F 33% 30.37 in - Calm Calm - N/A   Clear
1:55 PM 51.8 °F - 21.2 °F 30% 30.36 in - South 8.1 mph - N/A   Clear
2:15 PM 51.8 °F - 23.0 °F 33% 30.36 in - SSE 8.1 mph - N/A   Clear
2:35 PM 53.6 °F - 21.2 °F 28% 30.35 in - SSW 6.9 mph - N/A   Clear
2:55 PM 53.6 °F - 23.0 °F 30% 30.35 in - South 9.2 mph - N/A   Clear
3:15 PM 53.6 °F - 23.0 °F 30% 30.34 in - SSW 10.4 mph - N/A   Clear
3:35 PM 53.6 °F - 23.0 °F 30% 30.34 in - South 9.2 mph - N/A   Clear
3:55 PM 53.6 °F - 24.8 °F 33% 30.33 in - SSE 11.5 mph - N/A   Clear
4:15 PM 53.6 °F - 24.8 °F 33% 30.33 in - South 8.1 mph - N/A   Clear
4:35 PM 53.6 °F - 24.8 °F 33% 30.32 in - South 11.5 mph - N/A   Clear
4:55 PM 53.6 °F - 24.8 °F 33% 30.32 in - South 9.2 mph - N/A   Clear
5:15 PM 51.8 °F - 24.8 °F 35% 30.32 in - South 9.2 mph - N/A   Clear
5:35 PM 51.8 °F - 24.8 °F 35% 30.32 in - South 6.9 mph - N/A   Clear
5:55 PM 48.2 °F - 26.6 °F 43% 30.33 in - SSE 5.8 mph - N/A   Clear
6:15 PM 46.4 °F 43.5 °F 24.8 °F 43% 30.33 in - SSE 5.8 mph - N/A   Clear
6:35 PM 46.4 °F 43.5 °F 24.8 °F 43% 30.33 in - SSE 5.8 mph - N/A   Clear
6:55 PM 44.6 °F 42.2 °F 24.8 °F 46% 30.33 in - SSE 4.6 mph - N/A   Clear
7:15 PM 42.8 °F 37.5 °F 26.6 °F 53% 30.34 in - SE 9.2 mph - N/A   Clear
7:35 PM 44.6 °F 40.2 °F 26.6 °F 49% 30.34 in - SSE 8.1 mph - N/A   Clear
7:55 PM 44.6 °F 40.2 °F 24.8 °F 46% 30.34 in - SSE 8.1 mph - N/A   Clear
8:15 PM 42.8 °F 37.5 °F 24.8 °F 49% 30.33 in - SSE 9.2 mph - N/A   Clear
8:35 PM 42.8 °F 36.6 °F 24.8 °F 49% 30.33 in - SSE 11.5 mph - N/A   Clear
8:55 PM 42.8 °F 37.0 °F 23.0 °F 46% 30.33 in - SSE 10.4 mph - N/A   Clear
9:15 PM 42.8 °F 37.5 °F 23.0 °F 46% 30.32 in - SSE 9.2 mph - N/A   Clear
9:35 PM 41.0 °F 35.8 °F 23.0 °F 49% 30.31 in - SSE 8.1 mph - N/A   Clear
9:55 PM 39.2 °F 33.6 °F 23.0 °F 52% 30.31 in - SSE 8.1 mph - N/A   Clear
10:15 PM 39.2 °F 34.2 °F 23.0 °F 52% 30.31 in - SE 6.9 mph - N/A   Clear
10:35 PM 37.4 °F 33.8 °F 24.8 °F 60% 30.30 in - SE 4.6 mph - N/A   Clear
10:55 PM 37.4 °F 34.9 °F 24.8 °F 60% 30.30 in - ESE 3.5 mph - N/A   Clear
11:15 PM 37.4 °F - 24.8 °F 60% 30.30 in - Calm Calm - N/A   Clear
11:35 PM 35.6 °F - 26.6 °F 70% 30.30 in - Calm Calm - N/A   Mostly Cloudy
11:55 PM 35.6 °F - 28.4 °F 75% 30.28 in - Calm Calm - N/A   Overcast